Location: NCO
(38.4404°N, 77.1340°W)
Time: 10:34:59
(UTC-04:00)

Hubble Space Telescope - Visible Passes

Search period start: 28 May 2017 00:00
Search period end: 07 June 2017 00:00
Orbit: 538 x 542 km, 28.5° (Epoch: 27 May)

Date Brightness Start Highest point End Pass type
(mag) Time Alt. Az. Time Alt. Az. Time Alt. Az.
28 May 3.1 22:16:37 10° SSW 22:17:03 12° SSW 22:17:03 12° SSW visible
29 May 2.6 22:06:17 10° SW 22:08:03 17° SSW 22:08:03 17° SSW visible
30 May 2.3 21:56:01 10° SW 21:58:52 20° S 21:58:52 20° S visible
31 May 2.2 21:45:49 10° SW 21:48:53 20° S 21:49:32 19° SSE visible
01 Jun 2.3 21:35:39 10° SW 21:38:44 20° S 21:40:06 17° SSE visible
02 Jun 2.3 21:25:31 10° SW 21:28:35 20° S 21:30:33 15° SSE visible
03 Jun 2.4 21:15:26 10° SW 21:18:25 19° S 21:20:59 12° SE visible
04 Jun 2.5 21:05:23 10° SW 21:08:15 18° S 21:11:07 10° SE visible
